MSR464 LGAV-EHAM

Flight info

Callsign MSR464
Flight time N/A
Altitude 38000
Route KOR UL53 ELVAS DCT TUMBO DCT TAZ DCT KUSIB DCT PODET DCT RENKA DCT GASKA DCT MAPOX DCT HMM DCT NORKU
Aircraft A20N/M-SDE2E3FGHIRWXY/LB1

Departure

Time 2026-05-07 17:42
Airport Athens Eleftherios Venizelos International Airport (LGAV)

Arrival

Time N/A
Airport Amsterdam Airport Schiphol (EHAM)
Time Latitude Longitude Altitude Speed Heading
2026-05-07 17:10 37.93469 23.94695 287 ft 0 kts 309°
2026-05-07 17:29 37.93460 23.94708 287 ft 2 kts 310°
2026-05-07 17:29 37.93450 23.94724 287 ft 2 kts 311°
2026-05-07 17:29 37.93438 23.94739 287 ft 2 kts 314°
2026-05-07 17:30 37.93427 23.94754 293 ft 2 kts 318°
2026-05-07 17:30 37.93414 23.94767 293 ft 2 kts 331°
2026-05-07 17:30 37.93398 23.94773 293 ft 2 kts 17°
2026-05-07 17:30 37.93389 23.94768 289 ft 1 kts 36°
2026-05-07 17:31 37.93388 23.94767 289 ft 0 kts 36°
2026-05-07 17:32 37.93390 23.94769 290 ft 1 kts 36°
2026-05-07 17:33 37.93404 23.94782 293 ft 4 kts 36°
2026-05-07 17:33 37.93431 23.94808 288 ft 6 kts 37°
2026-05-07 17:33 37.93447 23.94858 288 ft 7 kts 91°
2026-05-07 17:33 37.93421 23.94919 293 ft 9 kts 127°
2026-05-07 17:34 37.93418 23.94924 291 ft 0 kts 128°
2026-05-07 17:34 37.93410 23.94937 289 ft 6 kts 129°
2026-05-07 17:35 37.93384 23.95001 289 ft 9 kts 84°
2026-05-07 17:35 37.93425 23.95073 292 ft 11 kts 32°
2026-05-07 17:35 37.93493 23.95129 294 ft 13 kts 34°
2026-05-07 17:35 37.93568 23.95199 293 ft 14 kts 36°
2026-05-07 17:36 37.93653 23.95281 294 ft 16 kts 37°
2026-05-07 17:36 37.93746 23.95370 294 ft 18 kts 37°
2026-05-07 17:36 37.93848 23.95465 297 ft 19 kts 36°
2026-05-07 17:36 37.93950 23.95563 299 ft 16 kts 38°
2026-05-07 17:37 37.94045 23.95656 298 ft 18 kts 37°
2026-05-07 17:37 37.94146 23.95752 299 ft 19 kts 37°
2026-05-07 17:37 37.94255 23.95854 301 ft 20 kts 37°
2026-05-07 17:37 37.94369 23.95963 303 ft 21 kts 37°
2026-05-07 17:38 37.94489 23.96076 303 ft 22 kts 37°
2026-05-07 17:38 37.94612 23.96194 304 ft 20 kts 37°
2026-05-07 17:38 37.94852 23.96423 307 ft 22 kts 37°
2026-05-07 17:39 37.94978 23.96543 310 ft 22 kts 37°
2026-05-07 17:39 37.95097 23.96654 309 ft 22 kts 36°
2026-05-07 17:39 37.95218 23.96771 311 ft 22 kts 38°
2026-05-07 17:39 37.95322 23.96870 313 ft 16 kts 36°
2026-05-07 17:40 37.95384 23.96944 313 ft 12 kts 64°
2026-05-07 17:40 37.95385 23.96976 313 ft 3 kts 101°
2026-05-07 17:40 37.95355 23.97012 313 ft 9 kts 160°
2026-05-07 17:40 37.95294 23.97028 313 ft 8 kts 173°
2026-05-07 17:41 37.95238 23.97036 313 ft 7 kts 173°
2026-05-07 17:41 37.95190 23.97016 314 ft 8 kts 212°
2026-05-07 17:41 37.95138 23.96967 312 ft 16 kts 218°
2026-05-07 17:41 37.94809 23.96653 309 ft 100 kts 217°
2026-05-07 17:42 37.94086 23.95966 302 ft 161 kts 217°
2026-05-07 17:42 37.93116 23.95059 817 ft 175 kts 217°
2026-05-07 17:42 37.92086 23.94205 1684 ft 180 kts 207°
2026-05-07 17:42 37.90948 23.93506 2572 ft 181 kts 205°
2026-05-07 17:43 37.89810 23.92830 3389 ft 181 kts 205°
2026-05-07 17:43 37.88682 23.92131 4153 ft 181 kts 208°
2026-05-07 17:43 37.87533 23.91364 4763 ft 193 kts 208°
2026-05-07 17:43 37.86267 23.90545 5138 ft 215 kts 207°
2026-05-07 17:44 37.84856 23.89680 5506 ft 238 kts 206°
2026-05-07 17:44 37.83297 23.88728 5982 ft 256 kts 209°
2026-05-07 17:44 37.81762 23.87589 6909 ft 255 kts 212°
2026-05-07 17:44 37.80259 23.86430 7750 ft 258 kts 212°
2026-05-07 17:45 37.78696 23.85273 8595 ft 262 kts 211°
2026-05-07 17:45 37.77102 23.84148 9473 ft 264 kts 210°
2026-05-07 17:45 37.75615 23.83131 10237 ft 266 kts 210°
2026-05-07 17:45 37.74796 23.82577 10624 ft 268 kts 210°
2026-05-07 17:46 37.74057 23.82082 10963 ft 270 kts 210°
2026-05-07 17:46 37.72386 23.80969 11730 ft 273 kts 210°
2026-05-07 17:47 37.70718 23.79862 12490 ft 276 kts 210°
2026-05-07 17:47 37.69011 23.78728 13264 ft 279 kts 210°
2026-05-07 17:47 37.67284 23.77580 14009 ft 282 kts 210°
2026-05-07 17:47 37.65538 23.76419 14681 ft 284 kts 210°
2026-05-07 17:48 37.63780 23.75252 15377 ft 287 kts 211°
2026-05-07 17:48 37.62008 23.74076 16049 ft 289 kts 211°
2026-05-07 17:48 37.60219 23.72889 16712 ft 292 kts 211°
2026-05-07 17:48 37.58417 23.71693 17384 ft 294 kts 212°
2026-05-07 17:49 37.56627 23.70434 18033 ft 294 kts 220°
2026-05-07 17:49 37.55196 23.68682 18617 ft 290 kts 238°
2026-05-07 17:49 37.54307 23.66419 19123 ft 289 kts 256°
2026-05-07 17:49 37.53920 23.63929 19652 ft 291 kts 261°
2026-05-07 17:50 37.53564 23.61404 20182 ft 295 kts 261°
2026-05-07 17:50 37.53380 23.58772 20362 ft 310 kts 272°
2026-05-07 17:50 37.53523 23.55992 20492 ft 327 kts 280°
2026-05-07 17:50 37.54322 23.53254 20628 ft 343 kts 300°
2026-05-07 17:51 37.55766 23.50763 20774 ft 360 kts 307°
2026-05-07 17:51 37.57424 23.48314 20973 ft 373 kts 309°
2026-05-07 17:51 37.59119 23.45867 21475 ft 377 kts 309°
2026-05-07 17:51 37.59869 23.44771 21738 ft 377 kts 309°
2026-05-07 17:52 37.60116 23.44407 21815 ft 378 kts 309°
2026-05-07 17:52 37.60343 23.44072 21887 ft 378 kts 309°
2026-05-07 17:53 37.60508 23.43828 21944 ft 378 kts 309°
2026-05-07 17:53 37.62210 23.41281 22485 ft 381 kts 308°
2026-05-07 17:53 37.63910 23.38696 23023 ft 384 kts 308°
2026-05-07 17:53 37.65613 23.36085 23557 ft 387 kts 308°
2026-05-07 17:54 37.67325 23.33449 24042 ft 388 kts 308°
2026-05-07 17:54 37.67811 23.32699 24209 ft 388 kts 308°
2026-05-07 17:54 37.69025 23.30829 24633 ft 386 kts 308°
2026-05-07 17:54 37.70726 23.28204 25186 ft 386 kts 308°
2026-05-07 17:55 37.72422 23.25587 25690 ft 386 kts 308°
2026-05-07 17:55 37.74120 23.22964 26189 ft 386 kts 308°
2026-05-07 17:55 37.75822 23.20334 26657 ft 386 kts 308°
2026-05-07 17:55 37.77520 23.17707 27141 ft 386 kts 308°
2026-05-07 17:56 37.79220 23.15075 27593 ft 387 kts 308°
2026-05-07 17:56 37.80897 23.12478 28056 ft 387 kts 308°
2026-05-07 17:56 37.82600 23.09838 28448 ft 388 kts 308°
2026-05-07 17:56 37.84306 23.07190 28876 ft 388 kts 308°
2026-05-07 17:57 37.86009 23.04544 29286 ft 388 kts 308°
2026-05-07 17:57 37.87142 23.02783 29518 ft 389 kts 307°
2026-05-07 17:57 37.89431 22.99222 30023 ft 390 kts 307°
2026-05-07 17:57 37.91146 22.96554 30375 ft 391 kts 307°
2026-05-07 17:58 37.92856 22.93874 30695 ft 391 kts 306°
2026-05-07 17:58 37.94437 22.91070 31042 ft 391 kts 303°
2026-05-07 17:58 37.95967 22.88281 31418 ft 390 kts 303°
2026-05-07 17:58 37.97514 22.85479 31868 ft 387 kts 303°
2026-05-07 17:59 37.99051 22.82696 32342 ft 383 kts 303°
2026-05-07 17:59 38.00570 22.79940 32800 ft 380 kts 303°
2026-05-07 17:59 38.02077 22.77203 33234 ft 377 kts 303°
2026-05-07 17:59 38.03567 22.74491 33671 ft 373 kts 302°
2026-05-07 18:00 38.05044 22.71801 34068 ft 370 kts 302°
2026-05-07 18:00 38.06511 22.69124 34396 ft 369 kts 302°
2026-05-07 18:00 38.07953 22.66492 34643 ft 368 kts 302°
2026-05-07 18:00 38.09414 22.63824 34887 ft 367 kts 302°
2026-05-07 18:01 38.10870 22.61165 35157 ft 366 kts 303°
2026-05-07 18:01 38.12321 22.58512 35390 ft 366 kts 303°
2026-05-07 18:01 38.13772 22.55857 35618 ft 365 kts 303°
2026-05-07 18:01 38.15218 22.53210 35835 ft 365 kts 303°
2026-05-07 18:02 38.18107 22.47913 36249 ft 364 kts 303°
2026-05-07 18:02 38.19528 22.45304 36447 ft 364 kts 303°
2026-05-07 18:02 38.20966 22.42660 36644 ft 363 kts 303°
2026-05-07 18:03 38.22401 22.40021 36855 ft 363 kts 303°
2026-05-07 18:03 38.23835 22.37383 37031 ft 362 kts 303°
2026-05-07 18:03 38.25266 22.34746 37208 ft 362 kts 303°
2026-05-07 18:03 38.26694 22.32114 37368 ft 362 kts 303°
2026-05-07 18:04 38.28122 22.29479 37544 ft 361 kts 303°
2026-05-07 18:04 38.29527 22.26884 37712 ft 360 kts 303°
2026-05-07 18:04 38.30947 22.24259 37870 ft 360 kts 303°
2026-05-07 18:04 38.32368 22.21631 38019 ft 360 kts 303°
2026-05-07 18:05 38.33785 22.19007 38109 ft 360 kts 303°
2026-05-07 18:05 38.36614 22.13764 38108 ft 359 kts 303°
2026-05-07 18:06 38.39441 22.08514 38100 ft 359 kts 303°
2026-05-07 18:06 38.42267 22.03259 38120 ft 359 kts 303°
2026-05-07 18:07 38.45071 21.98034 38109 ft 358 kts 303°
2026-05-07 18:07 38.47880 21.92794 38108 ft 359 kts 303°
2026-05-07 18:08 38.50824 21.87632 38115 ft 361 kts 307°
2026-05-07 18:08 38.54339 21.83027 38117 ft 364 kts 314°
2026-05-07 18:09 38.58400 21.79085 38091 ft 368 kts 320°
2026-05-07 18:09 38.62597 21.75455 38114 ft 369 kts 320°
2026-05-07 18:10 38.66846 21.71760 38110 ft 369 kts 320°
2026-05-07 18:10 38.71090 21.68068 38141 ft 369 kts 320°
2026-05-07 18:11 38.75344 21.64367 38119 ft 369 kts 320°
2026-05-07 18:11 38.79604 21.60655 38101 ft 369 kts 320°
2026-05-07 18:12 38.83823 21.56974 38103 ft 369 kts 320°
2026-05-07 18:12 38.88078 21.53256 38028 ft 370 kts 320°
2026-05-07 18:13 38.92318 21.49548 38123 ft 370 kts 319°
2026-05-07 18:13 38.96568 21.45819 38116 ft 369 kts 319°
2026-05-07 18:14 39.00790 21.42113 38113 ft 370 kts 319°
2026-05-07 18:14 39.05049 21.38368 38110 ft 371 kts 319°
2026-05-07 18:15 39.09302 21.34627 38115 ft 371 kts 319°
2026-05-07 18:15 39.13558 21.30873 38123 ft 370 kts 319°
2026-05-07 18:16 39.17781 21.27144 38109 ft 371 kts 319°
2026-05-07 18:16 39.19626 21.25512 38109 ft 371 kts 319°
2026-05-07 18:17 39.23346 21.22219 38114 ft 371 kts 319°
2026-05-07 18:17 39.27600 21.18450 38121 ft 371 kts 319°
2026-05-07 18:18 39.31856 21.14673 38116 ft 371 kts 319°
2026-05-07 18:18 39.36106 21.10897 38108 ft 371 kts 319°
2026-05-07 18:19 39.40325 21.07142 38120 ft 370 kts 319°
2026-05-07 18:19 39.44563 21.03364 38119 ft 370 kts 319°
2026-05-07 18:20 39.48794 20.99585 38118 ft 370 kts 318°
2026-05-07 18:20 39.53023 20.95806 38118 ft 369 kts 318°
2026-05-07 18:21 39.57219 20.92047 38126 ft 369 kts 318°
2026-05-07 18:21 39.61433 20.88268 38133 ft 368 kts 318°
2026-05-07 18:22 39.65648 20.84482 38133 ft 368 kts 318°
2026-05-07 18:22 39.69859 20.80694 38132 ft 368 kts 318°
2026-05-07 18:23 39.74042 20.76927 38131 ft 368 kts 317°
2026-05-07 18:23 39.78246 20.73134 38122 ft 368 kts 317°
2026-05-07 18:24 39.82452 20.69335 38115 ft 368 kts 317°
2026-05-07 18:24 39.86655 20.65533 38108 ft 368 kts 317°
2026-05-07 18:25 39.90862 20.61719 38107 ft 369 kts 317°
2026-05-07 18:25 39.95045 20.57923 38102 ft 369 kts 317°
2026-05-07 18:26 39.99263 20.54089 38091 ft 369 kts 316°
2026-05-07 18:26 40.03478 20.50252 38091 ft 370 kts 316°
2026-05-07 18:27 40.07767 20.46523 38092 ft 374 kts 321°
2026-05-07 18:27 40.12303 20.43242 38095 ft 375 kts 321°
2026-05-07 18:28 40.16860 20.39922 38104 ft 375 kts 321°
2026-05-07 18:28 40.21426 20.36587 38103 ft 375 kts 321°
2026-05-07 18:29 40.25983 20.33258 38100 ft 375 kts 321°
2026-05-07 18:29 40.30496 20.29958 38091 ft 374 kts 321°
2026-05-07 18:30 40.35043 20.26624 38096 ft 376 kts 321°
2026-05-07 18:30 40.39589 20.23289 38096 ft 373 kts 320°
2026-05-07 18:31 40.44115 20.19965 38088 ft 372 kts 320°
2026-05-07 18:31 40.48627 20.16642 38086 ft 373 kts 320°
2026-05-07 18:32 40.53119 20.13328 38088 ft 372 kts 320°
2026-05-07 18:32 40.57632 20.09993 38086 ft 373 kts 320°
2026-05-07 18:33 40.62151 20.06649 38089 ft 374 kts 320°
2026-05-07 18:33 40.66680 20.03296 38078 ft 373 kts 320°
2026-05-07 18:34 40.71163 19.99972 38079 ft 372 kts 320°
2026-05-07 18:34 40.75678 19.96615 38073 ft 373 kts 320°
2026-05-07 18:35 40.80192 19.93255 38076 ft 372 kts 320°
2026-05-07 18:35 40.84705 19.89892 38074 ft 372 kts 320°
2026-05-07 18:36 40.89187 19.86545 38071 ft 373 kts 320°
2026-05-07 18:36 40.93709 19.83163 38071 ft 374 kts 320°
2026-05-07 18:37 40.98232 19.79775 38078 ft 374 kts 320°
2026-05-07 18:37 41.02765 19.76374 38072 ft 374 kts 320°
2026-05-07 18:38 41.07288 19.72977 38072 ft 374 kts 319°
2026-05-07 18:38 41.11780 19.69594 38073 ft 374 kts 319°
2026-05-07 18:39 41.16307 19.66182 38070 ft 374 kts 319°
2026-05-07 18:39 41.20838 19.62761 38079 ft 375 kts 319°
2026-05-07 18:40 41.25370 19.59334 38074 ft 375 kts 319°
2026-05-07 18:40 41.29871 19.55925 38070 ft 375 kts 319°
2026-05-07 18:41 41.34396 19.52492 38065 ft 374 kts 319°
2026-05-07 18:41 41.38915 19.49058 38064 ft 374 kts 319°
2026-05-07 18:42 41.43432 19.45620 38059 ft 374 kts 319°
2026-05-07 18:42 41.47918 19.42200 38054 ft 374 kts 319°
2026-05-07 18:43 41.52431 19.38754 38055 ft 374 kts 319°
2026-05-07 18:43 41.56946 19.35301 38056 ft 374 kts 318°
2026-05-07 18:44 41.61464 19.31839 38056 ft 375 kts 318°
2026-05-07 18:44 41.65990 19.28366 38058 ft 375 kts 318°
2026-05-07 18:45 41.70489 19.24908 38063 ft 376 kts 318°
2026-05-07 18:45 41.75027 19.21414 38066 ft 377 kts 318°
2026-05-07 18:46 41.79570 19.17911 38078 ft 377 kts 318°
2026-05-07 18:46 41.84124 19.14394 38077 ft 378 kts 317°
2026-05-07 18:47 41.88684 19.10866 38080 ft 378 kts 317°
2026-05-07 18:47 41.93215 19.07354 38075 ft 379 kts 317°
2026-05-07 18:48 41.97784 19.03808 38075 ft 380 kts 317°
2026-05-07 18:48 42.02361 19.00249 38076 ft 380 kts 317°
2026-05-07 18:49 42.06946 18.96677 38071 ft 381 kts 318°
2026-05-07 18:49 42.11511 18.93116 38066 ft 382 kts 318°
2026-05-07 18:50 42.16118 18.89515 38060 ft 383 kts 318°
2026-05-07 18:50 42.20739 18.85896 38056 ft 385 kts 318°
2026-05-07 18:51 42.25375 18.82262 38055 ft 386 kts 319°
2026-05-07 18:51 42.30027 18.78617 38060 ft 386 kts 319°
2026-05-07 18:52 42.34678 18.75034 38078 ft 390 kts 320°
2026-05-07 18:52 42.39422 18.71380 38078 ft 395 kts 320°
2026-05-07 18:53 42.44211 18.67685 38074 ft 397 kts 320°
2026-05-07 18:53 42.49019 18.63970 38072 ft 399 kts 320°
2026-05-07 18:54 42.53811 18.60256 38080 ft 400 kts 320°
2026-05-07 18:54 42.58638 18.56507 38076 ft 400 kts 321°
2026-05-07 18:55 42.63459 18.52755 38069 ft 400 kts 321°
2026-05-07 18:55 42.68312 18.48968 38074 ft 404 kts 321°
2026-05-07 18:56 42.73184 18.45166 38071 ft 404 kts 321°
2026-05-07 18:56 42.78030 18.41376 38081 ft 405 kts 321°
2026-05-07 18:57 42.82920 18.37543 38090 ft 406 kts 321°
2026-05-07 18:57 42.87839 18.33679 38091 ft 409 kts 322°
2026-05-07 18:58 42.92747 18.29822 38108 ft 407 kts 322°
2026-05-07 18:58 42.97630 18.25973 38108 ft 409 kts 322°
2026-05-07 18:59 43.02558 18.22081 38106 ft 409 kts 322°
2026-05-07 18:59 43.07491 18.18181 38101 ft 410 kts 322°
2026-05-07 19:00 43.11590 18.14931 38103 ft 410 kts 322°
2026-05-07 19:00 43.17336 18.10369 38095 ft 411 kts 322°
2026-05-07 19:01 43.22289 18.06430 38084 ft 412 kts 322°
2026-05-07 19:01 43.27243 18.02482 38081 ft 412 kts 322°
2026-05-07 19:02 43.32201 17.98522 38076 ft 413 kts 322°
2026-05-07 19:02 43.37136 17.94575 38074 ft 413 kts 322°
2026-05-07 19:03 43.42107 17.90588 38077 ft 415 kts 322°
2026-05-07 19:03 43.47096 17.86581 38076 ft 415 kts 322°
2026-05-07 19:04 43.52089 17.82563 38085 ft 416 kts 322°
2026-05-07 19:04 43.57073 17.78543 38087 ft 418 kts 322°
2026-05-07 19:05 43.62075 17.74508 38102 ft 416 kts 322°
2026-05-07 19:05 43.67085 17.70450 38098 ft 419 kts 322°
2026-05-07 19:06 43.71269 17.67054 38094 ft 421 kts 322°
2026-05-07 19:06 43.78833 17.60910 38092 ft 422 kts 322°
2026-05-07 19:07 43.84713 17.56120 38100 ft 423 kts 322°
2026-05-07 19:07 43.89779 17.51984 38096 ft 422 kts 322°
2026-05-07 19:08 43.93990 17.48539 38094 ft 423 kts 322°
2026-05-07 19:08 43.99893 17.43700 38103 ft 425 kts 322°
2026-05-07 19:09 44.04128 17.40222 38098 ft 425 kts 322°
2026-05-07 19:09 44.09210 17.36040 38091 ft 425 kts 322°
2026-05-07 19:10 44.14295 17.31847 38090 ft 425 kts 322°
2026-05-07 19:10 44.19383 17.27643 38085 ft 426 kts 322°
2026-05-07 19:11 44.24472 17.23430 38080 ft 426 kts 322°
2026-05-07 19:11 44.29561 17.19208 38071 ft 426 kts 322°
2026-05-07 19:12 44.34620 17.15003 38067 ft 426 kts 322°
2026-05-07 19:12 44.39712 17.10762 38061 ft 426 kts 322°
2026-05-07 19:13 44.44806 17.06509 38050 ft 427 kts 322°
2026-05-07 19:13 44.49905 17.02243 38051 ft 427 kts 322°
2026-05-07 19:14 44.54974 16.97994 38052 ft 428 kts 322°
2026-05-07 19:14 44.60088 16.93699 38041 ft 429 kts 322°
2026-05-07 19:15 44.65211 16.89387 38047 ft 430 kts 322°
2026-05-07 19:15 44.70345 16.85058 38046 ft 430 kts 322°
2026-05-07 19:16 44.75441 16.80752 38041 ft 430 kts 322°
2026-05-07 19:16 44.80576 16.76400 38038 ft 431 kts 322°
2026-05-07 19:17 44.85720 16.72035 38039 ft 432 kts 322°
2026-05-07 19:17 44.90872 16.67653 38037 ft 432 kts 322°
2026-05-07 19:18 44.95988 16.63293 38029 ft 432 kts 322°
2026-05-07 19:18 45.01131 16.58901 38024 ft 432 kts 322°
2026-05-07 19:19 45.06279 16.54496 38023 ft 433 kts 322°
2026-05-07 19:19 45.11431 16.50081 38018 ft 433 kts 322°
2026-05-07 19:20 45.16592 16.45672 38020 ft 434 kts 323°
2026-05-07 19:20 45.21812 16.41457 38015 ft 435 kts 324°
2026-05-07 19:21 45.27084 16.37218 38014 ft 435 kts 324°
2026-05-07 19:21 45.32348 16.32946 38016 ft 436 kts 323°
2026-05-07 19:22 45.37614 16.28654 38018 ft 437 kts 323°
2026-05-07 19:22 45.42885 16.24350 38011 ft 437 kts 323°
2026-05-07 19:23 45.48122 16.20063 38010 ft 437 kts 323°
2026-05-07 19:23 45.53397 16.15735 38018 ft 438 kts 323°
2026-05-07 19:24 45.58674 16.11398 38016 ft 438 kts 324°
2026-05-07 19:24 45.63925 16.07072 38023 ft 439 kts 324°
2026-05-07 19:25 45.69212 16.02706 38024 ft 439 kts 324°
2026-05-07 19:25 45.74504 15.98327 38022 ft 440 kts 324°
2026-05-07 19:26 45.79800 15.93935 38019 ft 440 kts 324°
2026-05-07 19:26 45.85101 15.89529 38019 ft 441 kts 324°
2026-05-07 19:27 45.90364 15.85145 38022 ft 441 kts 324°
2026-05-07 19:27 45.95673 15.80713 38016 ft 441 kts 324°
2026-05-07 19:28 46.00984 15.76269 38013 ft 442 kts 323°
2026-05-07 19:28 46.06292 15.71817 38012 ft 442 kts 323°
2026-05-07 19:29 46.11571 15.67381 38001 ft 441 kts 323°
2026-05-07 19:29 46.16870 15.62919 38002 ft 441 kts 323°
2026-05-07 19:30 46.22184 15.58463 38021 ft 442 kts 324°
2026-05-07 19:30 46.27506 15.54022 38031 ft 442 kts 324°
2026-05-07 19:31 46.32786 15.49605 38029 ft 442 kts 324°
2026-05-07 19:31 46.38109 15.45137 38042 ft 443 kts 324°
2026-05-07 19:32 46.43439 15.40651 38040 ft 443 kts 324°
2026-05-07 19:32 46.48781 15.36143 38037 ft 445 kts 324°
2026-05-07 19:33 46.54110 15.31639 38046 ft 443 kts 324°
2026-05-07 19:33 46.59397 15.27157 38032 ft 443 kts 324°
2026-05-07 19:34 46.64726 15.22629 38027 ft 444 kts 324°
2026-05-07 19:34 46.70052 15.18095 38027 ft 444 kts 324°
2026-05-07 19:35 46.75389 15.13539 38041 ft 445 kts 324°
2026-05-07 19:35 46.80705 15.08992 38044 ft 445 kts 324°
2026-05-07 19:36 46.86041 15.04419 38044 ft 445 kts 324°
2026-05-07 19:36 46.91375 14.99834 38049 ft 445 kts 324°
2026-05-07 19:37 46.96721 14.95228 38059 ft 446 kts 324°
2026-05-07 19:37 47.02030 14.90644 38063 ft 446 kts 324°
2026-05-07 19:38 47.07379 14.86014 38072 ft 447 kts 324°
2026-05-07 19:38 47.12738 14.81364 38081 ft 447 kts 324°
2026-05-07 19:39 47.18095 14.76707 38084 ft 448 kts 324°
2026-05-07 19:39 47.23420 14.72066 38084 ft 448 kts 324°
2026-05-07 19:40 47.28773 14.67387 38077 ft 448 kts 324°